DSP F17

operational
NORAD ID: 23435 Int'l Des: 1994-084 Owner: AFSMC Country: US
HEOCIRCULAR

关于 DSP F17

正在加载描述...

实时位置

正在加载3D地球...

即将过境

高度历史

Altitude vs Time

uPlot chart will show altitude changes over time

两行轨道根数

1 23435U 94084A 26062.45461584 .00000006 00000-0 00000+0 0 9990
2 23435 14.5020 355.8311 0009310 294.5025 249.3601 0.99082454 31760
Epoch: Mar 3, 2026 • Age: 34 hours

当前状态

高度 36147.5 km
速度 3.06 km/s
星下点 3.62°N, 148.91°W
发射日期 Dec 22, 1994
运行时间 31.1 years
类型 military

技术详情

分类 Payload
质量 2360.00 kg
干质量 2200.00 kg
总质量 2360.00 kg
长度 10.00 m
直径 3.30 m
跨度 11.50 m
形状 Cyl + 4 Pan
制造商 TRW
平台类型 DSP B14
阶段状态 Unknown Transfer Status
所有者/国家 AFSMC/US

大型星座

Loading constellations...